Lambertville, MI

8:36 AM EDT on May 22, 2018 (GMT -0400)
Lambertville

Weather History for KDUH - December, 2012

Change the Weather History Date:

Saturday, December 29, 2012

  Actual Average (KTOL) Record (KTOL)
Temperature  
Mean Temperature 28 °F -  
Max Temperature 30 °F 32 °F 70 °F (1889)
Min Temperature 23 °F 17 °F -10 °F (1880)
Degree Days  
Heating Degree Days 38    
Moisture  
Dew Point 25 °F    
Average Humidity 86    
Maximum Humidity 92    
Minimum Humidity 78    
Precipitation  
Precipitation 0.00 in - - ()
Sea Level Pressure  
Sea Level Pressure 29.88 in    
Wind  
Wind Speed 3 mph (NW)    
Max Wind Speed 8 mph    
Max Gust Speed -    
Visibility 4 miles    
Events Snow    
Averages and records for this station are not official NWS values.
T = Trace of Precipitation, MM = Missing Value Source: NWS Daily Summary

Daily Weather History Graph

Daily Weather History Graph

Search for Another Location

Airport or City:

Astronomy

Dec. 29, 2012 Rise Set
Actual Time 8:01 AM EST 5:12 PM EST
Civil Twilight 7:29 AM EST 5:44 PM EST
Nautical Twilight 6:54 AM EST 6:19 PM EST
Astronomical Twilight 6:21 AM EST 6:52 PM EST
Moon 6:46 PM EST (12/29) 8:33 AM EST (12/29)
Length of Visible Light 10h 14m
Length of Day
9h 11m
Full, 98% of the Moon is Illuminated
Dec 29
Full
Jan 4
Last Quarter
Jan 11
New
Jan 18
First Quarter
Jan 26
Full

Hourly Weather History & Observations

Time (EST) Temp. Windchill Dew Point Humidity Pressure Visibility Wind Dir Wind Speed Gust Speed Precip Events Conditions
12:15 AM 30.0 °F 26.5 °F 23.9 °F 78% 29.91 in 4.0 mi East 3.5 mph - N/A Snow Light Snow
12:34 AM 29.7 °F - 24.4 °F 81% 29.90 in 4.0 mi Calm Calm - N/A Snow Light Snow
12:55 AM 29.7 °F - 25.2 °F 83% 29.89 in 4.0 mi Calm Calm - N/A Snow Light Snow
1:15 AM 29.7 °F - 25.5 °F 85% 29.88 in 2.5 mi Calm Calm - N/A Snow Light Snow
1:35 AM 29.3 °F 24.3 °F 26.1 °F 88% 29.87 in 1.2 mi East 4.6 mph - N/A Snow Light Snow
1:55 AM 29.1 °F 25.4 °F 26.4 °F 90% 29.85 in 1.5 mi East 3.5 mph - N/A Snow Light Snow
2:14 AM 29.1 °F - 26.6 °F 90% 29.85 in 1.5 mi Calm Calm - N/A Snow Light Snow
2:35 AM 29.3 °F 25.6 °F 26.6 °F 90% 29.85 in 1.0 mi NE 3.5 mph - N/A Snow Light Snow
2:55 AM 29.1 °F - 26.6 °F 90% 29.85 in 2.5 mi Calm Calm - N/A Snow Light Snow
3:14 AM 29.1 °F - 26.6 °F 90% 29.85 in 1.2 mi Calm Calm - N/A Snow Snow
3:35 AM 29.1 °F 25.4 °F 26.6 °F 90% 29.83 in 1.2 mi ENE 3.5 mph - N/A Snow Light Snow
3:54 AM 29.3 °F - 27.1 °F 92% 29.83 in 1.5 mi Calm Calm - N/A Snow Light Snow
4:15 AM 29.8 °F 26.3 °F 27.5 °F 91% 29.82 in 1.5 mi East 3.5 mph - N/A Snow Light Snow
4:35 AM 29.8 °F - 27.3 °F 90% 29.82 in 2.0 mi Calm Calm - N/A Snow Light Snow
4:54 AM 29.8 °F 26.3 °F 27.3 °F 90% 29.81 in 1.8 mi NE 3.5 mph - N/A Snow Light Snow
5:15 AM 29.8 °F 24.9 °F 27.5 °F 91% 29.80 in 2.0 mi ENE 4.6 mph - N/A Snow Light Snow
5:35 AM 29.5 °F 24.5 °F 27.0 °F 90% 29.79 in 2.5 mi NNE 4.6 mph - N/A Snow Light Snow
5:54 AM 29.1 °F 24.1 °F 26.4 °F 90% 29.79 in 2.5 mi NE 4.6 mph - N/A Snow Light Snow
6:15 AM 29.1 °F 24.1 °F 26.4 °F 90% 29.79 in 2.5 mi NNE 4.6 mph - N/A Snow Light Snow
6:34 AM 28.9 °F 23.9 °F 26.2 °F 90% 29.80 in 2.0 mi NNE 4.6 mph - N/A Snow Light Snow
6:55 AM 28.9 °F 23.9 °F 26.2 °F 90% 29.80 in 2.0 mi North 4.6 mph - N/A Snow Light Snow
7:15 AM 28.9 °F 22.8 °F 26.2 °F 90% 29.80 in 1.5 mi North 5.8 mph - N/A Snow Light Snow
7:34 AM 28.4 °F 23.3 °F 25.7 °F 90% 29.79 in 2.0 mi North 4.6 mph - N/A Snow Light Snow
7:55 AM 28.2 °F 22.0 °F 25.3 °F 89% 29.79 in 2.5 mi North 5.8 mph - N/A Snow Light Snow
8:14 AM 28.0 °F 24.2 °F 25.2 °F 89% 29.79 in 1.8 mi North 3.5 mph - N/A Snow Light Snow
8:35 AM 28.2 °F 23.1 °F 25.2 °F 88% 29.79 in 2.5 mi North 4.6 mph - N/A Snow Light Snow
8:55 AM 28.2 °F 22.0 °F 24.8 °F 87% 29.79 in 3.0 mi North 5.8 mph - N/A Snow Light Snow
9:14 AM 28.2 °F 23.1 °F 24.8 °F 87% 29.79 in 2.5 mi North 4.6 mph - N/A   Overcast
9:35 AM 28.2 °F 22.0 °F 24.6 °F 86% 29.81 in 3.0 mi North 5.8 mph - N/A   Overcast
9:54 AM 28.4 °F 24.6 °F 24.8 °F 86% 29.82 in 4.0 mi NNW 3.5 mph - N/A   Overcast
10:14 AM 28.8 °F 23.7 °F 24.8 °F 85% 29.82 in 5.0 mi North 4.6 mph - N/A   Overcast
10:35 AM 29.3 °F 25.6 °F 25.2 °F 85% 29.83 in 7.0 mi North 3.5 mph - N/A   Overcast
10:54 AM 29.7 °F 24.7 °F 25.3 °F 84% 29.83 in 7.0 mi North 4.6 mph - N/A   Overcast
11:15 AM 30.0 °F 25.2 °F 25.5 °F 83% 29.83 in 7.0 mi North 4.6 mph - N/A   Overcast
11:35 AM 30.2 °F 26.7 °F 25.7 °F 83% 29.83 in 5.0 mi NNW 3.5 mph - N/A   Overcast
11:54 AM 30.6 °F 27.1 °F 25.7 °F 82% 29.83 in 4.0 mi NNW 3.5 mph - N/A Snow Light Snow
12:15 PM 30.9 °F 27.5 °F 26.1 °F 82% 29.83 in 3.0 mi WNW 3.5 mph - N/A Snow Light Snow
12:34 PM 30.7 °F 24.9 °F 25.7 °F 82% 29.83 in 4.0 mi WNW 5.8 mph - N/A Snow Light Snow
12:55 PM 30.9 °F 25.2 °F 25.9 °F 82% 29.83 in 5.0 mi WNW 5.8 mph - N/A Snow Light Snow
1:15 PM 30.7 °F 26.0 °F 25.7 °F 82% 29.83 in 5.0 mi NW 4.6 mph - N/A Snow Light Snow
1:34 PM 30.7 °F 24.9 °F 25.7 °F 82% 29.83 in 5.0 mi WNW 5.8 mph - N/A Snow Light Snow
1:55 PM 30.4 °F 24.5 °F 25.3 °F 82% 29.83 in 4.0 mi NW 5.8 mph - N/A Snow Light Snow
2:15 PM 30.4 °F 25.6 °F 25.3 °F 82% 29.84 in 5.0 mi NW 4.6 mph - N/A Snow Light Snow
2:34 PM 30.7 °F 26.0 °F 25.3 °F 80% 29.85 in 3.0 mi WNW 4.6 mph - N/A Snow Light Snow
2:55 PM 30.7 °F 24.9 °F 25.5 °F 81% 29.85 in 5.0 mi NW 5.8 mph - N/A Snow Light Snow
3:14 PM 30.7 °F 24.9 °F 25.7 °F 82% 29.86 in 4.0 mi WNW 5.8 mph - N/A Snow Light Snow
3:34 PM 30.9 °F 25.2 °F 25.7 °F 81% 29.86 in 3.0 mi WNW 5.8 mph - N/A Snow Light Snow
3:55 PM 30.2 °F 26.7 °F 25.5 °F 83% 29.87 in 2.5 mi WNW 3.5 mph - N/A Snow Light Snow
4:14 PM 30.2 °F 25.4 °F 25.5 °F 83% 29.88 in 2.5 mi WNW 4.6 mph - N/A Snow Light Snow
4:34 PM 29.7 °F 24.7 °F 25.3 °F 84% 29.89 in 2.5 mi WNW 4.6 mph - N/A Snow Light Snow
4:55 PM 29.8 °F 24.9 °F 25.7 °F 85% 29.90 in 1.8 mi West 4.6 mph - N/A Snow Light Snow
5:14 PM 29.5 °F 25.9 °F 25.7 °F 86% 29.91 in 1.8 mi WNW 3.5 mph - N/A Snow Light Snow
5:35 PM 29.3 °F 25.6 °F 25.7 °F 86% 29.92 in 3.0 mi WNW 3.5 mph - N/A Snow Light Snow
6:14 PM 29.3 °F 25.6 °F 25.7 °F 86% 29.94 in 3.0 mi West 3.5 mph - N/A Snow Light Snow
6:35 PM 29.3 °F 24.3 °F 25.7 °F 86% 29.95 in 5.0 mi West 4.6 mph - N/A Snow Light Snow
6:54 PM 29.3 °F 23.2 °F 25.7 °F 86% 29.95 in 3.0 mi West 5.8 mph - N/A Snow Light Snow
7:15 PM 29.3 °F 24.3 °F 25.5 °F 86% 29.96 in 5.0 mi WNW 4.6 mph - N/A Snow Light Snow
7:35 PM 28.9 °F 25.2 °F 24.8 °F 84% 29.97 in 7.0 mi WNW 3.5 mph - N/A Snow Light Snow
7:54 PM 28.4 °F 24.6 °F 24.4 °F 85% 29.98 in 7.0 mi WNW 3.5 mph - N/A Snow Light Snow
8:15 PM 28.0 °F 24.2 °F 24.1 °F 85% 29.99 in 10.0 mi West 3.5 mph - N/A   Overcast
8:34 PM 27.5 °F - 23.7 °F 86% 29.99 in 10.0 mi Calm Calm - N/A   Overcast
8:54 PM 26.6 °F 22.6 °F 22.6 °F 85% 30.00 in 10.0 mi West 3.5 mph - N/A   Overcast
9:15 PM 26.2 °F - 21.7 °F 83% 30.00 in 10.0 mi Calm Calm - N/A   Overcast
9:55 PM 25.7 °F 18.0 °F 21.4 °F 84% 30.02 in 10.0 mi West 6.9 mph - N/A   Overcast
10:15 PM 25.3 °F 17.6 °F 21.0 °F 84% 30.03 in 10.0 mi West 6.9 mph - N/A   Overcast
10:35 PM 25.7 °F 19.0 °F 21.6 °F 84% 30.04 in 10.0 mi West 5.8 mph - N/A   Overcast
10:55 PM 26.1 °F 17.6 °F 21.4 °F 82% 30.04 in 10.0 mi West 8.1 mph - N/A   Overcast
11:14 PM 25.2 °F 16.5 °F 20.5 °F 82% 30.05 in 10.0 mi West 8.1 mph - N/A   Scattered Clouds
11:35 PM 25.3 °F 17.6 °F 20.8 °F 83% 30.06 in 10.0 mi West 6.9 mph - N/A   Clear
11:54 PM 23.7 °F 16.6 °F 19.6 °F 84% 30.07 in 10.0 mi West 5.8 mph - N/A   Clear